Weather Roundup
Issued by NWS Corpus Christi, TX

Home | Current Version | Previous Version | Text Only | Print | Product List | Glossary On
Versions: 1 2 3 4 5 6 7 8 9 10 11 12 13 14 15 16 17 18 19 20 21 22 23 24 25 26 27 28 29 30 31 32 33 34 35 36 37 38 39 40 41 42 43 44 45 46 47 48 49 50
000
ASUS44 KCRP 252310
HRRCRP

SOUTH TEXAS REGIONAL WEATHER ROUNDUP
NATIONAL WEATHER SERVICE CORPUS CHRISTI TX
600 PM CDT WED MAY 25 2016


TXZ229>244-260000-
...CORPUS CHRISTI AREA OBSERVATIONS...

CITY           SKY/WX    TMP DP  RH WIND       PRES   REMARKS
CORPUS CHRISTI PTSUNNY   86  77  74 SE17G25   29.92F HX  97
NAS CORPUS CHR PTSUNNY   84  79  85 SE17G25   29.93F HX  96
ROCKPORT       MOSUNNY   85  77  77 SE16      29.94S HX  95
KINGSVILLE NAS CLOUDY    86  80  82 SE18G25   29.91S HX 101
ALICE          CLOUDY    87  76  69 E15G25    29.90F HX  97
FALFURRIAS     CLOUDY    90  76  62 E10G17    29.88S HX 102
$$

...VICTORIA AREA OBSERVATIONS...

CITY           SKY/WX    TMP DP  RH WIND       PRES   REMARKS
VICTORIA       MOSUNNY   87  74  64 SE18      29.96F HX  95
BEEVILLE       CLOUDY    86  78  76 SE13G18   29.93F HX  99
PLEASANTON     MOSUNNY   90  74  58 SE12G18   29.91S HX  99
SAN ANTONIO    CLOUDY    86  75  69 SE13      29.94S HX  95
$$

...LAREDO AREA OBSERVATIONS...

CITY           SKY/WX    TMP DP  RH WIND       PRES   REMARKS
LAREDO         CLOUDY    91  76  61 E12       29.90R HX 103
COTULLA        LGT RAIN  92  72  51 SE8       29.89R HX  99
DEL RIO        CLOUDY    86  76  71 SE10      29.90S HX  96
MCALLEN        CLOUDY    91  75  59 SE10      29.90R HX 101
HEBBRONVILLE   CLOUDY    90  73  57 S10       29.91S HX  98
$$

...OTHER TEXAS OBSERVATIONS...

CITY           SKY/WX    TMP DP  RH WIND       PRES   REMARKS
BROWNSVILLE    MOSUNNY   86  77  74 SE17G24   29.91F HX  97
HOUSTON        CLOUDY    85  72  65 S15       29.98F HX  91
COL. STATION   CLOUDY    86  74  67 S21       29.92F HX  94
AUSTIN         CLOUDY    85  75  72 S10       29.92F HX  93
WACO           CLOUDY    87  75  67 S12       29.93S HX  96
FORT WORTH     CLOUDY    86  74  67 S15       29.90F HX  94
WICHITA FALLS  SUNNY     88  74  63 S16G25    29.83F HX  96
LUBBOCK        SUNNY     92  24   8 SW20G29   29.92S
EL PASO        MOSUNNY   91  27  10 W9G23     29.94F
$$

...MARINE OBSERVATIONS...

STATION/POSITION TIME  SKY/WX   TEMP    WIND        PRES    VSBY  WAVE   SWELL
                                AIR SEA DIR/SP/G                  HT/PER HT/PER
                 (UTC)          (F)     (DEG/KT/KT) (MB)    (MI)  (FT/S) (FT/S)
PORT ARANSAS     2300            81 84  120/ 17/ 18 1014.5F
BUOY 90 E PORT A 2250            82 81  140/ 12/ 14 1015.4S         5/ 7   3/ 7
BUOY 45 SE BAFFI 2250            82 83  130/ 16/ 19 1012.9F         5/ 7   2/13
BUOY 200 E PT IS 2250                                 N/A           4/ 6
BUOY 15 E GALVES 2250            81 81  130/  8/ 10 1017.1R         4/ 7   3/ 7
$$




USA.gov is the U.S. government's official web portal to all federal, state and local government web resources and services.